Temp
2 2 2 2 2 2 2 2 2 2 2 2 2 2 2 2 2 2 3 3 3 4 7 9 9 8 8 7 7 9 8 8 7 7 9 11 12 13 14 13 13 14 12 12 13 13 14 20 20 18 15 15 16 16
1 1 1 2 2 2 2 2 2 2 3 2 2 1 2 2 2 2 3 3 3 3 7 7 8 9 9 8 6 6 9 6 9 8 11 12 11 12 13 13 11 10 15 14 15 15 18 19 17 17 17 15 14 15
1 1 2 1 2 2 2 3 3 3 3 3 2 1 2 2 2 2 3 4 3 4 5 6 7 8 8 8 9 6 8 10 8 7 8 10 11 12 12 13 13 11 14 15 14 16 18 16 16 16 16 15 15 15
1 2 2 2 2 3 3 3 3 3 3 3 2 1 2 2 2 2 3 4 4 4 5 7 9 9 8 9 9 9 9 8 7 6 7 9 10 12 11 13 12 12 10 14 15 14 12 11 12 14 14 13 12 13
2 2 2 2 3 4 4 5 4 4 3 3 2 2 2 2 2 2 2 4 4 6 6 7 7 8 10 9 8 9 9 8 6 7 7 9 12 11 12 13 13 15 10 12 12 12 11 10 12 13 11 11 10 10
2 2 3 3 4 4 4 5 5 3 3 2 2 2 2 2 2 2 2 3 4 4 4 5 7 7 8 9 9 9 8 7 6 6 7 11 13 11 11 11 10 11 13 11 11 11 12 11 10 9 9 9 9 8
2 3 4 4 4 4 4 4 4 3 3 3 2 2 2 3 2 2 4 5 4 4 3 5 7 9 9 9 9 8 8 6 5 6 7 9 11 11 10 11 8 9 11 10 10 10 12 9 7 6 7 7 7 4
3 3 3 3 4 4 4 5 4 3 3 3 3 3 3 3 3 2 4 4 4 3 3 5 6 8 9 7 7 7 6 6 6 6 7 8 11 10 8 7 8 7 9 8 8 9 7 7 6 6 6 5 3 2
3 3 3 4 4 4 4 5 4 3 3 3 3 3 3 2 3 4 4 3 4 5 4 5 7 8 10 9 8 7 7 6 6 7 9 10 10 7 3 4 3 4 5 5 6 8 7 5 5 4 3 3 2 0
3 3 4 4 4 5 5 5 4 3 3 3 2 1 2 3 3 3 3 3 4 5 6 7 9 8 9 9 9 9 9 9 8 8 9 8 4 3 4 3 2 2 3 2 3 3 3 3 3 1 -0 -1 -1 -2
3 3 4 4 4 5 5 5 4 3 3 3 3 4 3 3 3 3 4 5 5 5 8 8 9 8 9 8 9 9 8 9 9 8 8 8 4 2 3 2 1 0 0 0 -0 -1 -1 -1 -1 -1 -3 -3 -4 -5
3 4 4 4 5 5 4 4 3 3 4 4 4 3 3 4 4 5 6 5 7 8 9 8 9 8 8 9 8 9 9 9 9 8 8 6 2 1 1 -0 -1 -1 -2 -2 -2 -2 -3 -3 -3 -4 -4 -5 -6 -7
3 4 5 5 4 4 3 3 4 4 4 5 5 3 5 5 6 7 6 7 7 6 6 6 6 6 7 7 7 7 7 8 9 8 6 3 1 1 -0 -1 -2 -2 -3 -3 -4 -5 -5 -6 -6 -6 -7 -7 -8 -8
3 3 3 4 3 4 4 4 4 4 7 7 6 3 5 5 4 4 4 4 3 4 5 6 5 6 5 6 6 7 6 6 8 8 4 1 -1 -2 -2 -2 -3 -4 -5 -5 -6 -6 -7 -7 -8 -8 -8 -9 -9 -9
3 3 2 2 3 3 3 4 5 5 5 4 5 3 2 2 2 2 2 3 2 3 4 4 5 6 5 5 6 5 6 7 5 3 1 -1 -2 -3 -3 -4 -5 -5 -6 -6 -7 -7 -8 -8 -8 -8 -9 -9 -9 -10
3 3 3 4 3 4 4 5 4 4 3 2 1 2 2 3 2 2 3 2 2 3 4 6 6 5 5 6 5 5 6 4 2 -0 -1 -2 -3 -4 -4 -5 -5 -6 -6 -6 -7 -7 -8 -8 -8 -9 -9 -10 -10 -10
5 4 2 3 3 4 4 4 3 2 2 1 0 0 1 2 1 1 1 1 2 3 5 5 5 4 3 5 3 1 2 0 -1 -2 -2 -3 -4 -4 -5 -5 -5 -5 -6 -6 -6 -6 -7 -7 -7 -7 -7 -8 -9 -10
4 3 3 3 4 3 2 3 3 2 0 1 1 -0 0 0 1 1 1 1 3 4 4 2 4 3 2 3 1 -1 -1 -2 -2 -3 -3 -4 -4 -5 -5 -5 -5 -6 -6 -6 -6 -6 -6 -5 -6 -7 -7 -8 -8 -8
4 3 3 3 3 3 3 3 3 0 -0 -0 -0 0 0 -0 -0 0 1 1 2 3 3 3 1 1 -0 -0 -1 -2 -3 -3 -4 -5 -5 -6 -6 -6 -6 -6 -6 -6 -6 -6 -5 -6 -7 -7 -6 -6 -6 -6 -6 -8
3 3 3 3 3 3 2 2 3 1 0 -0 -0 -0 -1 -1 -1 -1 -1 1 1 0 -1 -1 -1 -2 -2 -2 -2 -2 -3 -4 -4 -5 -5 -5 -5 -5 -5 -5 -6 -6 -6 -6 -6 -6 -6 -7 -8 -9 -9 -9 -8 -9
4 3 4 4 3 3 3 2 1 1 1 -0 -0 0 -1 -1 -1 -1 -1 -1 -2 -2 -3 -3 -3 -3 -3 -4 -4 -4 -4 -4 -3 -3 -4 -5 -5 -5 -5 -5 -5 -4 -5 -5 -6 -7 -7 -8 -8 -9 -10 -10 -11 -11
4 4 4 4 3 3 1 0 1 1 1 0 1 1 -0 -1 -2 -2 -1 -3 -4 -4 -3 -4 -4 -4 -4 -4 -4 -4 -5 -5 -5 -5 -5 -5 -4 -4 -5 -5 -5 -6 -7 -7 -7 -8 -9 -10 -11 -10 -10 -11 -12 -13
4 5 4 4 3 2 1 0 1 1 1 0 1 0 -0 -1 -1 0 -3 -4 -5 -5 -5 -5 -5 -5 -5 -5 -5 -5 -4 -4 -5 -5 -5 -5 -6 -6 -6 -7 -7 -7 -7 -8 -8 -9 -11 -12 -12 -11 -11 -11 -11 -12
2 0 1 2 3 1 2 2 4 3 2 1 1 -1 -0 -1 0 -1 -3 -4 -4 -5 -5 -5 -5 -4 -4 -4 -4 -5 -5 -5 -5 -5 -5 -5 -6 -7 -7 -8 -9 -9 -9 -9 -10 -10 -11 -12 -12 -12 -12 -12 -12 -13
2 -2 1 1 3 3 2 2 3 3 2 2 1 0 -0 0 -0 -1 -3 -4 -4 -4 -4 -4 -3 -3 -4 -5 -5 -6 -5 -5 -5 -6 -7 -7 -7 -7 -8 -9 -10 -11 -11 -10 -10 -11 -12 -12 -12 -12 -13 -12 -14 -13
-1 -2 1 2 2 3 4 3 3 2 1 0 -0 0 1 1 0 -2 -2 -3 -4 -4 -4 -4 -3 -3 -3 -4 -5 -6 -7 -7 -6 -8 -9 -9 -9 -8 -8 -8 -9 -12 -12 -13 -12 -11 -11 -12 -13 -13 -13 -14 -15 -15
-1 -1 -2 -0 0 2 2 2 2 2 1 0 1 1 1 -1 -2 -4 -4 -4 -5 -6 -5 -5 -4 -4 -6 -7 -8 -9 -10 -10 -10 -10 -11 -11 -12 -12 -12 -11 -11 -13 -13 -14 -14 -14 -13 -13 -13 -13 -14 -13 -14 -14
-3 -2 -3 -3 -3 -1 -2 -1 -1 -1 -1 -1 -0 -2 -2 -2 -4 -5 -5 -7 -7 -7 -8 -8 -7 -7 -8 -9 -10 -10 -11 -12 -12 -11 -12 -12 -13 -13 -14 -15 -15 -15 -15 -15 -16 -15 -15 -15 -15 -15 -14 -14 -15 -15
-3 -3 -5 -7 -4 -5 -5 -4 -4 -5 -5 -2 -2 -4 -6 -6 -7 -7 -7 -8 -8 -8 -8 -9 -10 -10 -10 -10 -11 -11 -11 -11 -10 -10 -9 -9 -11 -13 -14 -15 -15 -15 -15 -15 -16 -16 -16 -17 -17 -17 -17 -16 -16 -16
-4 -3 -5 -6 -6 -7 -7 -6 -6 -6 -6 -7 -7 -7 -8 -8 -8 -8 -8 -7 -7 -8 -9 -9 -9 -9 -9 -10 -11 -12 -13 -14 -14 -12 -11 -11 -13 -14 -15 -15 -16 -16 -16 -16 -16 -16 -16 -16 -16 -16 -16 -16 -16 -16
-3 -3 -5 -5 -7 -7 -6 -6 -6 -6 -6 -6 -6 -8 -9 -9 -10 -10 -10 -9 -10 -10 -9 -9 -10 -10 -10 -10 -10 -10 -13 -16 -16 -15 -15 -15 -15 -16 -17 -17 -17 -17 -17 -17 -17 -16 -17 -17 -16 -16 -16 -16 -17 -17
-3 -4 -5 -7 -7 -6 -7 -5 -5 -6 -6 -6 -7 -6 -6 -6 -8 -9 -12 -10 -9 -9 -10 -9 -10 -12 -13 -14 -15 -15 -15 -16 -16 -17 -17 -16 -16 -17 -17 -17 -17 -17 -18 -18 -17 -17 -17 -17 -17 -17 -17 -17 -17 -18
-5 -5 -5 -6 -6 -5 -6 -4 -4 -5 -4 -5 -6 -6 -7 -6 -8 -10 -12 -12 -11 -10 -11 -12 -14 -15 -15 -15 -15 -16 -17 -17 -17 -17 -18 -18 -18 -18 -18 -18 -18 -18 -18 -18 -18 -17 -17 -18 -18 -18 -19 -19 -19 -19
Height
708 706 704 702 701 699 698 698 698 698 699 703 709 716 722 727 732 737 740 746 749 746 735 734 733 736 733 736 731 725 730 731 737 737 725 710 703 693 689 689 689 687 699 702 703 703 701 666 667 680 691 694 695 698
697 695 692 690 688 686 685 684 684 684 683 687 694 704 713 719 726 733 737 740 744 746 734 733 730 731 733 736 739 733 723 736 727 728 710 705 704 693 687 689 699 703 682 687 686 686 671 666 677 683 688 696 703 702
686 683 681 678 675 672 671 670 670 670 671 675 680 694 704 712 719 726 732 735 740 742 738 734 726 726 728 729 730 736 727 724 730 733 724 711 704 695 693 686 686 698 686 677 685 674 672 681 685 687 693 698 703 707
676 673 669 666 662 660 658 657 657 658 662 667 675 686 697 706 715 723 727 731 736 740 735 720 718 716 719 723 724 725 727 729 733 731 725 712 704 700 700 689 690 695 701 681 679 684 695 700 696 694 699 707 711 712
665 661 658 654 651 650 649 650 651 651 657 662 670 682 693 703 712 720 726 728 731 732 720 718 717 710 710 715 718 721 723 726 731 728 722 713 700 702 696 691 689 683 696 690 690 693 697 706 702 705 711 715 718 718
654 651 647 645 644 643 642 643 645 649 654 661 670 681 691 701 712 721 726 725 725 731 734 722 713 709 708 709 711 713 719 726 727 728 723 706 698 703 701 701 707 704 696 699 702 702 700 706 713 717 717 721 721 722
644 641 639 638 636 636 636 639 643 648 655 662 671 681 691 700 708 713 711 709 713 730 732 725 707 696 700 702 706 711 716 721 726 724 722 713 704 701 703 700 716 715 709 710 710 704 700 713 720 724 725 725 725 732
635 634 632 631 630 630 632 636 641 648 655 663 672 681 690 698 708 710 708 707 715 726 731 723 706 697 700 703 705 711 715 717 720 719 719 711 702 703 712 720 720 724 716 718 719 716 722 723 725 727 728 730 734 739
630 627 625 624 623 624 628 633 640 647 656 665 674 682 687 695 699 701 709 712 716 721 721 713 702 694 693 696 701 706 710 713 715 711 706 706 702 714 736 734 736 736 733 731 727 722 724 728 730 734 736 738 741 746
624 621 618 616 616 618 625 632 639 646 655 667 675 682 687 690 695 701 710 714 717 716 710 699 691 695 693 693 695 699 701 699 705 705 703 706 730 738 738 741 743 743 741 741 735 737 738 738 739 744 747 750 751 753
621 617 612 609 613 620 626 633 639 648 656 666 673 676 684 690 695 700 704 705 706 704 695 690 688 691 695 695 695 696 700 694 694 698 701 702 726 742 743 746 748 751 750 749 749 751 752 751 751 753 757 760 762 763
621 615 613 614 619 624 630 637 644 651 658 662 666 679 687 692 693 692 691 694 689 680 682 684 686 692 695 695 696 694 692 692 690 700 698 709 743 746 749 753 755 756 756 757 757 758 759 759 760 762 764 767 769 770
624 623 623 625 628 632 638 645 649 653 659 665 673 682 682 686 678 675 679 679 682 688 690 690 693 697 699 700 699 701 697 693 691 695 710 734 746 750 753 756 759 760 761 763 764 766 766 767 768 770 772 774 775 777
632 630 631 634 637 639 645 651 654 659 661 665 670 683 678 681 688 692 691 691 698 697 695 694 700 701 706 704 703 701 706 702 694 691 722 745 753 758 761 763 765 768 769 771 772 772 773 774 776 778 779 780 782 784
641 640 642 645 647 650 654 658 659 661 667 674 676 686 696 703 703 703 703 700 704 702 700 701 702 701 704 707 704 707 706 694 712 726 742 754 760 763 767 770 772 774 776 776 777 778 780 782 783 784 786 787 788 788
649 650 651 655 657 658 658 657 661 667 680 690 698 698 699 698 702 703 702 705 708 705 702 699 699 702 707 705 706 711 702 713 734 748 757 762 766 769 771 774 776 778 779 781 782 784 786 786 787 790 791 792 792 793
651 655 657 659 661 661 661 665 673 683 693 701 710 710 707 707 710 711 711 712 710 706 699 700 701 713 716 709 725 734 733 745 751 757 762 767 770 773 776 778 780 781 782 784 785 786 788 790 790 791 791 794 795 796
654 658 660 661 662 663 669 674 682 693 705 709 709 715 715 715 714 715 716 713 708 706 707 717 716 720 727 721 737 750 755 759 762 766 770 773 776 778 779 781 783 784 786 787 788 789 790 790 791 793 795 796 797 797
656 659 662 664 665 669 677 686 689 704 714 716 719 719 720 723 724 723 721 719 717 715 716 721 731 737 744 748 754 759 763 767 771 776 779 781 782 783 784 786 787 788 789 790 790 792 793 793 793 794 795 795 796 798
660 662 665 667 668 674 686 695 698 704 713 721 722 724 726 728 728 729 728 725 724 727 739 746 751 756 757 760 761 765 769 772 775 777 781 784 785 786 787 788 790 791 792 793 794 794 795 796 798 799 799 799 798 800
664 667 668 668 672 679 689 697 706 711 716 720 725 726 731 733 733 733 734 735 737 747 757 763 764 766 768 769 771 772 774 775 776 777 781 785 788 789 790 791 791 791 792 793 795 797 798 799 801 802 802 802 803 803
666 667 669 671 678 688 699 705 706 711 715 721 723 724 729 735 738 742 745 748 760 768 766 770 772 773 774 775 777 777 779 779 781 784 786 788 789 790 792 793 794 796 797 798 798 799 801 802 803 803 803 804 804 804
666 668 671 675 682 692 707 708 705 708 713 722 722 725 732 739 743 744 756 766 774 776 776 777 779 780 781 783 783 783 784 785 787 789 791 792 794 796 796 797 798 798 799 801 802 802 804 805 805 805 805 804 804 804
668 675 679 681 686 698 701 701 698 703 711 715 721 731 735 739 742 750 763 772 777 779 780 781 781 782 784 785 786 788 789 790 792 793 794 795 797 799 800 801 802 803 804 804 804 805 806 806 806 806 806 806 805 805
674 695 688 689 688 691 696 700 701 702 711 715 721 730 735 736 741 752 763 774 776 779 780 780 780 782 785 789 792 793 793 793 794 797 798 799 800 800 802 804 806 806 806 805 805 806 807 808 807 807 807 806 806 806
690 702 694 691 692 689 691 697 700 707 714 721 728 731 731 731 739 754 764 773 778 780 781 782 783 784 786 789 792 795 798 798 798 801 803 803 803 802 802 803 803 807 808 808 807 807 806 807 807 808 807 806 806 806
695 703 707 706 703 697 699 703 705 709 715 722 725 728 729 738 753 769 772 777 780 784 785 786 785 787 792 796 799 801 802 801 801 804 806 807 807 807 807 807 807 810 810 810 809 809 808 808 807 807 806 806 805 805
711 712 713 716 716 714 716 718 721 724 730 732 730 741 741 746 761 772 778 782 786 789 790 792 793 795 797 800 803 804 805 805 805 806 807 808 809 810 810 810 811 811 810 810 810 809 809 809 808 807 806 805 805 804
716 720 726 732 727 735 740 737 740 748 750 739 738 752 766 772 776 780 784 787 790 792 794 797 800 801 802 804 805 806 806 806 806 807 806 805 808 812 812 812 812 812 811 810 809 809 808 808 807 806 806 805 804 803
722 722 730 738 742 751 756 752 753 756 755 756 762 769 774 780 785 787 788 790 791 794 797 799 800 801 803 804 807 809 810 810 810 810 808 809 812 813 813 813 812 812 811 810 809 809 808 807 806 805 804 803 803 801
722 724 732 742 753 761 760 759 759 759 760 762 767 772 778 785 791 793 794 795 797 799 800 801 803 804 805 806 806 807 810 812 812 812 813 813 814 814 813 813 812 812 811 810 809 808 807 807 805 804 803 802 802 800
725 729 737 749 758 761 762 758 760 763 766 768 771 774 777 779 786 796 800 799 799 800 801 802 804 807 809 809 810 810 811 813 814 814 814 814 814 814 813 813 812 812 811 810 809 808 807 806 805 804 803 801 800 799
734 737 740 746 756 754 758 754 757 764 765 769 775 776 780 779 787 799 802 801 801 801 804 806 808 809 810 811 812 813 813 813 814 814 813 813 813 813 813 813 812 811 810 809 808 807 806 805 804 803 801 800 798 796
Wind_Speed
32 33 36 39 39 39 39 39 39 39 39 42 38 35 33 31 28 26 23 21 15 4 12 14 14 12 9 6 4 3 3 1 3 4 4 6 5 6 7 7 6 13 10 8 10 9 12 3 4 5 10 13 10 9
35 37 37 38 39 40 41 41 41 39 38 41 43 38 35 33 31 27 19 22 22 5 7 14 18 25 22 23 3 3 4 2 3 4 6 3 5 3 5 3 4 3 9 7 9 8 5 6 14 12 12 12 7 9
37 36 37 41 42 40 41 40 39 39 31 27 41 41 36 34 31 30 24 20 19 6 8 12 15 25 20 20 19 4 3 3 4 2 4 4 5 2 2 4 1 4 14 10 2 8 8 12 9 14 11 12 10 11
36 37 38 39 37 35 34 31 30 29 25 23 38 40 37 34 30 29 26 21 15 3 4 9 17 20 26 24 16 19 15 16 8 4 3 3 2 5 3 5 6 3 4 4 7 3 9 15 6 14 15 13 12 12
36 36 38 40 28 23 22 21 19 15 19 23 39 38 36 33 30 28 23 23 23 10 2 4 17 21 17 15 22 24 14 10 5 2 3 3 2 1 3 3 5 3 3 2 4 7 12 9 13 14 13 12 10 12
33 38 33 23 24 24 21 17 14 18 19 27 36 36 34 32 29 19 4 24 27 22 3 3 3 7 12 23 20 14 10 5 2 1 3 4 4 2 2 1 9 8 12 15 5 9 11 13 15 15 13 13 11 14
31 31 19 21 20 16 14 13 16 21 24 30 34 34 32 31 30 8 4 3 34 21 2 3 4 3 13 11 7 5 7 2 2 2 3 3 3 2 2 1 5 9 11 11 12 14 7 17 9 13 12 12 15 17
22 15 22 17 15 15 12 17 21 26 26 30 30 31 30 29 25 14 19 4 33 10 2 3 3 3 6 4 3 4 3 3 4 3 3 3 2 2 2 5 9 12 10 13 13 10 9 8 10 12 13 11 11 11
14 20 16 15 17 14 15 22 24 30 28 28 26 23 16 10 6 9 17 27 18 5 5 4 3 2 7 4 4 5 4 2 2 3 4 2 2 2 4 7 9 10 9 11 11 10 10 11 11 12 12 12 10 10
10 9 13 14 9 19 20 25 26 27 33 31 23 4 3 7 33 32 7 2 2 2 3 4 3 3 4 4 5 4 3 3 4 4 2 3 3 5 6 7 7 8 10 11 10 10 10 10 8 11 11 10 9 10
5 6 6 10 18 23 26 27 31 33 35 8 3 2 25 32 6 2 4 4 4 4 5 5 7 4 3 4 3 3 2 2 3 4 5 6 3 3 6 8 9 9 9 9 9 9 9 9 9 10 11 12 14 15
9 10 11 21 25 24 33 37 44 19 8 10 17 16 7 2 1 3 5 4 6 5 3 5 4 3 2 1 1 2 3 2 2 6 3 4 3 6 6 8 8 8 9 10 13 10 13 15 14 13 13 14 16 17
19 22 24 27 32 41 43 36 21 27 36 15 5 3 3 3 5 4 5 4 4 2 1 1 3 2 2 2 1 2 1 2 1 3 3 3 7 7 7 8 9 11 12 13 12 15 17 19 18 17 16 16 17 17
26 35 33 31 26 30 37 39 25 14 1 3 2 4 3 3 4 4 4 4 3 3 3 4 3 2 0 2 1 2 2 2 2 3 4 6 9 9 9 8 9 10 11 11 13 16 17 17 17 17 18 17 17 16
23 29 31 30 30 25 22 16 11 8 6 4 5 4 4 3 4 2 1 2 3 1 1 3 3 1 2 2 1 1 2 1 5 4 4 6 8 8 9 9 8 8 7 8 13 13 14 15 15 17 16 16 16 16
18 21 17 13 15 13 11 7 10 7 4 4 6 3 2 5 5 5 5 6 4 2 1 1 2 2 2 1 1 4 5 4 3 5 7 8 9 8 9 9 9 12 12 12 13 14 14 14 14 15 16 16 15 14
11 4 9 9 12 12 8 6 7 6 4 4 3 5 4 6 6 4 5 3 3 3 2 2 3 4 1 2 3 5 4 6 7 7 7 9 9 9 8 11 11 12 12 12 13 13 12 11 11 12 13 12 12 11
7 15 17 12 7 7 5 6 4 4 6 5 4 6 6 6 6 5 4 6 4 2 2 3 0 4 4 3 4 5 7 8 8 8 7 8 10 12 12 12 12 12 12 11 10 9 9 9 10 9 8 7 8 7
12 10 10 8 6 5 3 5 6 4 5 4 4 4 4 4 6 6 5 5 8 6 3 3 5 3 3 4 8 7 7 7 7 7 8 13 13 12 13 12 12 11 10 9 9 9 9 11 9 6 4 3 6 7
19 18 14 7 4 4 4 3 4 4 3 3 3 5 4 4 4 6 7 7 7 4 5 4 4 6 7 7 7 7 7 7 7 7 7 6 8 8 9 9 9 9 9 8 7 5 6 7 7 7 8 9 7 7
11 7 7 6 6 9 4 3 4 4 4 4 4 4 4 7 8 7 6 6 6 4 4 5 7 7 11 11 11 10 9 9 5 6 7 6 9 9 8 7 5 6 6 6 5 5 7 6 5 5 6 6 5 6
4 4 5 7 4 4 4 7 5 5 3 5 3 3 4 4 4 5 5 6 4 4 3 5 6 7 8 9 12 13 14 16 15 15 13 9 5 6 7 6 6 6 6 6 6 6 6 7 7 4 4 4 5 6
5 3 4 3 4 4 5 9 1 4 4 4 4 3 3 3 2 3 4 3 3 5 9 10 12 14 14 14 14 13 12 12 11 10 10 10 9 7 7 7 6 4 5 6 5 5 6 2 3 3 1 2 1 3
5 5 4 3 4 4 3 1 3 3 4 3 3 4 3 3 4 4 4 3 3 7 6 9 11 8 10 11 7 10 10 10 11 9 7 7 7 7 7 7 7 6 6 4 4 4 4 3 2 3 3 4 2 5
3 6 3 5 2 3 4 3 2 3 4 5 3 4 3 2 3 3 3 3 4 5 4 5 6 8 6 6 9 8 9 7 8 8 8 6 5 6 5 5 6 5 5 3 3 3 3 3 2 4 4 4 6 7
6 7 5 3 2 2 3 4 3 5 4 3 3 4 2 2 3 5 3 6 6 5 4 5 5 6 6 8 6 8 7 5 7 8 7 7 7 6 4 2 4 7 6 5 6 5 1 0 3 3 6 2 1 2
4 4 4 3 3 2 4 5 6 4 4 3 3 3 3 3 4 3 5 9 6 9 9 8 7 10 9 10 10 8 8 9 12 9 7 7 8 8 9 9 7 6 4 4 4 5 6 4 4 3 5 5 5 3
4 5 4 4 5 6 4 4 3 3 3 1 3 3 2 3 3 3 4 13 14 12 11 12 13 12 11 10 9 8 7 7 8 8 8 9 9 8 8 6 8 4 3 4 3 2 3 4 6 6 6 6 6 6
4 4 4 6 6 6 7 5 3 3 4 2 3 3 3 3 7 12 14 13 12 12 12 11 11 10 10 10 9 9 7 6 4 3 2 3 6 6 5 4 4 4 4 5 4 2 2 4 5 6 6 7 8 8
3 3 4 6 5 5 5 4 4 3 6 8 7 10 10 12 13 11 10 10 11 11 10 9 8 8 7 7 7 8 8 7 7 7 5 5 6 3 3 4 4 5 5 5 5 5 6 5 6 7 8 7 8 8
3 3 4 5 5 5 8 10 14 12 9 9 8 9 8 4 9 15 13 11 11 10 9 9 9 7 6 5 5 3 6 5 6 6 6 4 3 3 3 3 4 4 5 5 5 6 6 7 7 8 8 8 8 9
2 3 5 5 5 5 3 5 6 8 7 8 7 7 5 4 3 3 3 4 6 7 6 7 8 8 7 7 8 8 9 7 5 4 4 3 3 3 3 4 5 5 5 5 6 6 7 8 8 9 10 10 10 10
11 11 11 7 5 6 3 3 3 4 4 3 3 3 4 3 4 3 3 6 10 9 9 9 8 8 8 8 7 6 5 4 3 4 4 3 4 3 3 3 4 4 6 6 6 7 8 8 9 10 11 11 12 12
Wind_Direction
281 281 283 282 280 278 276 273 268 262 256 242 234 229 225 225 219 212 224 219 212 249 273 269 257 264 282 277 272 29 140 211 151 192 242 243 257 251 250 210 220 189 191 205 225 244 249 245 268 176 92 63 51 25
284 286 284 282 281 279 277 276 273 270 262 247 226 219 215 220 217 212 225 218 212 228 269 310 278 263 257 259 275 250 281 107 240 210 233 276 251 291 305 272 80 245 208 200 190 214 297 87 100 86 89 102 55 38
289 289 287 285 285 280 277 273 271 271 257 247 215 205 206 211 210 206 213 212 203 238 277 263 257 254 254 254 260 262 290 232 203 317 306 235 262 315 281 274 97 302 300 226 309 254 203 111 110 94 85 76 60 43
290 291 292 293 290 286 281 275 268 260 247 218 203 196 200 204 201 200 209 213 199 175 240 263 256 249 250 246 253 240 255 273 274 301 279 277 249 10 296 308 311 216 348 259 227 88 46 47 25 73 69 59 54 53
292 293 291 295 290 277 273 263 267 235 211 207 194 190 192 195 196 200 209 218 208 213 266 304 315 278 243 231 234 243 245 251 271 261 257 245 287 181 284 280 283 349 141 248 77 45 106 104 62 55 66 60 48 57
291 292 288 288 274 281 268 254 232 196 191 182 182 184 188 190 190 184 215 233 223 219 272 293 347 285 275 226 237 227 221 229 234 184 279 275 224 257 274 340 31 33 42 38 45 8 54 82 62 41 47 41 42 57
291 291 282 284 277 282 240 228 198 183 177 178 181 186 191 192 186 186 201 271 201 193 251 271 250 238 213 211 215 209 179 165 172 183 240 257 295 224 290 279 82 33 9 48 28 9 58 37 38 31 32 26 54 60
286 286 292 274 283 260 233 206 187 178 175 177 181 188 192 194 193 204 233 281 160 136 196 253 272 173 155 158 151 154 181 154 196 195 210 256 223 223 152 73 40 14 357 37 13 22 56 33 37 35 34 36 58 54
292 289 277 262 279 240 199 186 177 177 170 169 175 176 170 162 167 166 186 162 158 158 185 227 256 174 176 175 160 174 155 179 175 229 206 182 195 84 48 32 37 21 8 358 341 40 38 43 39 33 30 29 52 52
290 267 273 265 246 178 175 174 168 168 170 155 129 125 130 166 127 117 120 101 146 252 249 250 234 216 204 187 177 165 177 199 189 213 114 190 91 86 80 77 47 17 16 15 11 23 16 24 39 50 45 45 55 65
359 341 337 152 155 153 158 158 158 147 137 118 154 119 123 130 118 116 144 181 168 197 211 226 221 171 195 202 186 208 201 195 230 158 197 172 110 88 69 57 47 35 35 37 64 57 50 42 56 74 70 66 67 70
37 68 109 137 141 139 144 135 136 133 125 127 109 106 106 128 131 181 173 171 201 199 159 180 138 165 91 112 228 219 210 184 266 149 220 112 97 91 75 64 57 56 58 55 59 68 64 66 74 80 82 80 77 77
76 105 108 121 124 127 132 135 131 124 117 112 83 85 187 168 204 190 145 171 146 90 124 29 110 73 117 10 118 305 200 217 170 202 68 70 106 82 82 82 68 66 70 74 72 75 75 73 70 79 80 73 75 72
91 100 108 112 109 111 117 118 119 126 56 87 107 86 5 99 55 38 23 49 59 24 77 76 79 78 78 141 6 262 53 272 225 206 81 103 91 80 68 76 79 74 75 78 78 76 77 77 76 75 76 79 83 81
100 101 98 98 108 102 101 103 110 93 43 57 25 57 69 85 56 59 26 100 31 358 38 120 99 193 72 100 5 63 197 179 33 56 81 96 101 106 102 100 98 93 88 87 84 83 84 87 85 82 80 82 78 75
95 104 90 93 106 107 93 71 52 60 58 55 33 90 22 117 86 46 53 80 18 346 111 81 115 129 92 85 173 7 303 50 63 87 99 97 93 91 94 94 94 98 97 97 98 98 96 91 92 91 86 80 76 75
88 113 151 115 91 82 83 67 48 51 63 61 67 18 56 64 59 50 23 9 331 290 64 50 51 43 283 102 75 6 24 96 100 96 92 96 101 99 101 102 103 104 103 100 100 99 106 119 117 97 91 93 87 91
99 128 118 106 101 64 57 49 84 77 64 46 73 69 61 31 49 51 23 2 12 46 37 71 357 48 17 40 99 100 83 78 80 90 97 100 101 98 94 93 90 93 95 96 101 109 114 112 96 96 104 119 116 104
121 143 146 115 81 84 68 42 50 78 61 75 79 67 66 65 49 35 30 40 43 46 77 56 51 41 56 64 99 103 109 108 103 91 81 78 83 87 89 89 86 84 81 83 83 79 71 54 55 64 74 58 69 57
99 103 99 93 97 89 83 69 73 83 88 99 78 72 64 45 46 55 40 37 52 58 53 46 47 54 69 72 84 95 104 116 121 113 106 111 113 107 97 100 104 112 104 105 92 93 107 85 62 41 32 31 55 62
96 98 83 86 65 61 80 92 75 89 110 86 123 100 89 68 52 47 46 34 50 36 71 71 73 81 85 86 90 103 115 142 143 119 118 110 110 110 106 100 88 77 82 79 94 80 53 59 52 48 53 60 63 53
106 118 102 55 80 77 73 20 110 132 88 118 121 88 91 69 54 41 49 47 68 27 47 102 90 86 78 70 75 80 87 87 88 91 103 119 111 94 76 67 76 69 62 44 52 62 63 48 21 60 77 75 48 40
99 69 67 77 89 78 113 168 134 157 109 123 135 87 68 73 64 117 79 56 79 48 73 82 84 90 91 87 82 79 86 95 94 91 88 90 93 90 85 74 74 75 82 54 37 57 64 71 45 26 38 326 74 137
70 53 43 63 67 97 139 107 119 88 114 127 99 95 83 102 112 72 74 71 95 119 113 125 121 119 114 103 89 85 87 95 96 88 86 100 92 76 75 74 67 59 52 50 51 52 54 54 347 309 14 307 0 332
89 13 6 75 106 121 117 113 88 93 99 108 97 111 125 175 88 88 102 128 130 116 115 130 122 103 103 108 100 76 52 79 91 90 65 77 110 126 110 94 78 53 6 339 70 72 66 350 340 5 344 340 7 335
73 21 22 37 64 104 117 118 114 109 101 91 88 114 180 105 91 100 102 131 133 135 126 111 121 118 98 99 106 82 57 44 101 92 57 46 34 26 39 16 124 91 42 14 351 343 27 78 322 332 307 284 238 321
75 61 52 10 336 91 99 64 65 74 84 92 116 136 127 96 95 88 103 114 104 86 72 52 89 102 103 98 90 80 67 58 72 94 88 73 63 52 44 41 56 60 31 22 6 360 358 355 333 321 315 313 327 0
66 23 76 45 62 27 65 58 51 59 80 26 87 61 64 66 100 106 101 107 108 106 88 73 76 89 100 105 107 102 91 93 98 106 105 92 78 68 63 56 52 57 38 7 358 352 341 337 327 318 318 319 315 308
69 95 83 40 59 54 32 30 56 50 334 306 108 91 89 55 102 109 111 118 122 121 115 109 102 105 103 96 80 67 56 35 50 72 43 68 128 80 51 37 20 7 347 331 305 331 310 328 318 313 312 306 309 307
79 60 90 52 54 55 28 15 89 70 54 75 89 103 94 83 81 109 125 130 120 106 104 110 122 117 119 116 104 82 59 53 46 28 19 46 55 35 13 3 352 348 347 342 336 329 325 325 319 291 285 297 305 315
97 96 81 67 80 98 91 75 73 77 86 98 102 108 113 112 64 49 64 83 101 118 118 111 105 92 90 72 69 113 120 63 64 80 78 68 49 22 352 357 342 350 346 343 340 334 337 333 323 321 318 320 314 310
54 92 118 110 129 151 285 92 87 103 109 99 102 124 143 118 96 102 354 0 122 92 78 103 121 90 79 79 75 84 89 95 77 72 70 62 41 16 359 353 349 345 335 336 330 324 323 322 319 319 316 316 316 311
88 97 110 106 132 158 194 162 112 114 95 84 53 41 34 43 90 103 111 43 43 108 98 92 98 102 100 101 99 95 98 105 71 51 39 26 9 17 51 341 322 329 329 328 324 323 321 319 317 315 313 310 308 306